{"data":{"norad_id":68563,"intl_designator":"2026-070X","name":"STARLINK-36238","alt_names":[],"object_type":"PAYLOAD","status":"ACTIVE","operator":null,"country":"US","launch_date":"2026-04-02","launch_site_code":"AFETR","launch_vehicle":null,"mission":null,"orbit_class":"UNKNOWN","rcs_meters":null,"size_class":null,"mass_kg":null,"dimensions":null,"purposes":["comms"],"wikipedia_slug":null,"has_3d_model":false,"image_url":null,"decayed_at":null,"tle_current":{"epoch":"2026-09-20T04:40:35.263776Z","epoch_age_seconds":71129,"freshness":"FRESH","line1":"1 68563U 26070X   26263.19485259  .00020432  00000+0  61427-3 0  9998","line2":"2 68563  53.1573 174.9160 0001676  96.3856 263.7338 15.34395870 26396","mean_motion":15.3439587,"eccentricity":0.0001676,"inclination_deg":53.1573,"raan_deg":174.916,"arg_perigee_deg":96.3856,"mean_anomaly_deg":263.7338,"bstar":0.00061427,"rev_number":2639,"period_min":93.848010683188,"perigee_km":461.5689885834,"apogee_km":463.86204234659,"semimajor_km":6840.852515465,"source":"CELESTRAK","updated_at":"2026-09-20T09:00:43.937731Z"}}}